This demonstration page uses our WeatherBlox Daily Observations layout. Learn more.

Left ArrowRight Arrow

39.01783, -85.05884

Hourly Observations for June 1, 2015

Temp ( °F °C ) Dew Point ( °F °C ) Humidity (%) Winds ( mph kmh ) Pressure ( in mb ) Visibility ( mi km ) Precip ( " mm )
12:52 am 00:52 Cloudy 57 13.9 50 10 78 78 NNE 13 20 30.10 1019 10 16 N/A
1:31 am 01:31 Cloudy 55 13 50 10 82 82 NNE 13 20 30.12 1020 10 16 N/A
1:52 am 01:52 Cloudy 55 12.8 50 10 83 83 NNE 13 20 30.10 1019 10 16 N/A
2:52 am 02:52 Cloudy 54 12.2 49 9.4 83 83 NNE 16 26 30.09 1019 10 16 N/A
3:52 am 03:52 Cloudy 55 12.8 49 9.4 80 80 NE 9 15 30.10 1019 10 16 N/A
4:52 am 04:52 Cloudy 54 12.2 49 9.4 83 83 NE 10 17 30.10 1019 10 16 N/A
5:52 am 05:52 Cloudy with Light Rain 53 11.7 48 8.9 83 83 NNE 9 15 30.11 1020 10 16 N/A
6:52 am 06:52 Cloudy 53 11.7 49 9.4 86 86 NNE 10 17 30.11 1020 10 16 N/A
7:52 am 07:52 Cloudy 53 11.7 48 8.9 83 83 NE 10 17 30.11 1020 10 16 N/A
8:52 am 08:52 Cloudy with Light Rain 53 11.7 49 9.4 86 86 NNE 12 19 30.13 1020 10 16 N/A
9:52 am 09:52 Cloudy with Light Rain 53 11.7 50 10 89 89 ENE 9 15 30.14 1021 8 13 0.01 0.25
10:52 am 10:52 Cloudy with Light Rain 53 11.7 50 10 89 89 NNE 9 15 30.13 1020 7 11 0.01 0.25
11:52 am 11:52 Cloudy with Light Rain 53 11.7 50 10 89 89 NE 10 17 30.14 1021 6 10 0.04 1.02
12:17 pm 12:17 Cloudy with Light Rain 54 12 50 10 88 88 NE 7 11 30.15 1021 7 11 0.01 0.25
12:29 pm 12:29 Cloudy with Light Rain 54 12 48 9 82 82 NE 9 15 30.15 1021 6 10 0.01 0.25
12:52 pm 12:52 Cloudy with Light Rain 54 12 50 10 88 88 NE 9 15 30.15 1021 6 10 N/A
1:52 pm 13:52 Cloudy with Light Rain 54 12.2 51 10.6 90 90 NNE 9 15 30.14 1021 7 11 0.04 1.02
2:40 pm 14:40 Cloudy 55 13 52 11 88 88 NNE 10 17 30.12 1020 10 16 0.01 0.25
2:52 pm 14:52 Cloudy 56 13.3 51 10.6 84 84 NNE 7 11 30.12 1020 10 16 0.01 0.25
3:52 pm 15:52 Cloudy 56 13.3 51 10.6 84 84 NE 10 17 30.12 1020 10 16 N/A
4:52 pm 16:52 Cloudy 57 13.9 51 10.6 81 81 NE 10 17 30.10 1019 10 16 N/A
5:52 pm 17:52 Cloudy 57 13.9 51 10.6 81 81 ENE 7 11 30.11 1020 10 16 N/A
6:52 pm 18:52 Cloudy 58 14.4 52 11.1 81 81 NE 8 13 30.10 1019 10 16 N/A
7:52 pm 19:52 Cloudy 63 17 55 13 77 77 N 15 24 30.06 1018 10 16 N/A
8:52 pm 20:52 Cloudy 57 13.9 51 10.6 81 81 NNE 10 17 30.12 1020 10 16 N/A
9:52 pm 21:52 Cloudy 57 13.9 51 10.6 81 81 NE 10 17 30.13 1020 10 16 N/A
10:52 pm 22:52 Cloudy 57 13.9 50 10 78 78 NE 8 13 30.14 1021 10 16 N/A
11:28 pm 23:28 Cloudy 55 13 50 10 82 82 NNE 12 19 30.15 1021 10 16 N/A
11:52 pm 23:52 Cloudy 56 13.3 50 10 81 81 NE 12 19 30.14 1021 10 16 N/A

Powered by AerisWeather